Weather in Dmitrovo

Russia / Bryansk Oblast     53°03′47″N   33°34′17″E
temp.,
°C
wind,
m/s
gust,
m/s
humid.,
%
clouds,
%
prec.,
mm/h
press.,
hPa
HPBL,
m
20 april, tue
tue2000:00+5ne599281 0.0 1018466
03:00+5ne5892100 0.1 1016498
06:00+5ne489494 0.4 1015415
09:00+7ene578596 0.4 1014570
12:00+6ne5893100 1.0 1013456
15:00+7ne5792100 2.8 1011966
18:00+7ne41089100 1.8 1010580
21:00+5ene698999 1.9 1010696
21 april, wed
wed2100:00+3ne4795100 0.0 1009441
03:00+3n4696100 0.0 1008423
06:00+3nnw3695100 0.0 1007441
09:00+4nw3484100 0.1 1009588
12:00+6wnw3474100 0.1 1009880
15:00+7w3467100 0.1 10101141
18:00+7sw3576100 0.1 1011592
21:00+5s3790100 0.2 1013254
22 april, thu
thu2200:00+5ssw4109434 0.3 1014328
03:00+4ssw4109413 0.4 1014250
06:00+3s389686 0.0 1015198
09:00+9s57806 0.0 1015422
12:00+13s686439 0.2 10141269
15:00+15ssw796095 1.9 10131714
18:00+13sw696644 1.3 1013809
21:00+9s4108616 1.6 1015197
23 april, fri
fri2300:00+9s5138799 0.0 1014295
03:00+8s5119354 0.3 1014287
06:00+7ssw4109460 0.1 1014323
09:00+10ssw4585100 0.4 1014687
12:00+7nnw5593100 1.9 1014310
15:00+6nw6791100 2.3 1014495
18:00+4nw5995100 0.7 1014491
21:00+4nw4688100 0.7 1014651
24 april, sat
sat2400:00+4w3693100 0.1 1014319
03:00+2wsw369572 0.3 1013128
06:00+1wsw369391 0.0 1013139
09:00+5w567197 0.1 1013602
12:00+8w6856100 0.7 10131792
15:00+8w7854100 1.5 10132024
18:00+6w68625 0.3 10131448
21:00+2w37795 0.3 1014175